Погода в Новофёдоровке

Россия / Республика Крым     45°05′29″N   33°34′26″E
темп.,
°C
ветер,
м/с
пор.,
м/с
влажн.,
%
обл.,
%
осадки,
мм/ч
давл.,
гПа
погр.,
м
27 января, ср
ср2700:00+10ююв71094100 3.4 1006274
03:00+11юв5880100 3.8 1003119
06:00+12юв81169100 0.1 1002140
09:00+12юв91567100 0.1 1000218
12:00+13ю71264100 0.1 1000168
15:00+12ююв7974100 0.1 997203
18:00+12вюв71068100 0.2 995130
21:00+12юв81363100 0.2 994200
28 января, чт
чт2800:00+10ю131780100 0.0 995750
03:00+8ююз111379100 0.1 9951088
06:00+7юз12137999 0.1 9971178
09:00+6юз121373100 0.3 10001411
12:00+5юз121373100 0.2 10021425
15:00+5юз141769100 0.9 10041808
18:00+4зюз141777100 0.9 10051656
21:00+4зюз151780100 2.1 10061528
29 января, пт
пт2900:00+5зюз121471100 1.0 10071482
03:00+6зюз131564100 2.0 10081741
06:00+5зюз101267100 0.7 10081439
09:00+6зюз121364100 1.1 10081522
12:00+6зюз111364100 0.2 10091671
15:00+7юз11146597 0.3 10081545
18:00+8юз131567100 0.1 10081615
21:00+7юз141679100 0.4 10081265
30 января, сб
сб3000:00+8юз131686100 1.3 10071148
03:00+8юз111383100 3.0 10071103
06:00+9ююз111382100 1.0 10051073
09:00+9ююз121376100 1.4 10041019
12:00+9ю111371100 0.0 10031016
15:00+10ю101563100 0.0 1001677
18:00+10ю71265100 0.0 999442
21:00+9ю61064100 0.0 998410
31 января, вс
вс3100:00+9ююз101287100 0.1 998678
03:00+9зюз81090100 0.6 998533
06:00+8з71076100 0.1 1000647
09:00+9зюз7107988 0.1 1005663
12:00+7ссз667590 0.1 1008381
15:00+7св116395 0.1 1009226
18:00+8вюв2376100 0.0 1009252
21:00+9ююв4582100 0.0 1010305